[[{"header":{"parameterUnit":"m.s-1","parameterCategory":1,"la1":30.2991,"la2":30.254,"lo1":-89.0895,"lo2":-89.0444,"dy":0.0017,"dx":0.0017,"nx":28,"ny":28,"refTime":"2025-09-03T21:00:00:Z","depth":0,"parameterNumber":2,"parameterNumberName":"U-component_of_WINDS"},"data":[0,0,0,0,0,0,0,0,0,0,0,0,0,0,0,0,0,0,0,0,0,0,0,0,0,0,0,0,0,0,0,0,0,0,0,0,0,0,0,0,0,0,0,0,0,0,0,0,0,0,0,0,0,0,0,0,0,0,1.8957,1.8958,0,1.9012,1.9012,1.9013,1.8968,1.8966,1.8964,1.8962,1.9017,1.9021,1.9024,0,0,0,0,0,0,0,0,0,0,0,0,0,1.8812,1.8815,1.8957,1.8958,1.8959,1.9012,1.9012,1.9013,1.8968,1.8966,1.8964,1.8961,1.9016,1.902,1.9024,0,0,0,0,0,0,0,0,0,0,0,0,0,1.8872,1.8816,1.8957,1.8943,1.8942,1.9011,1.9012,1.9013,1.8969,1.8966,1.8963,1.896,1.9015,1.902,1.9025,1.9111,0,0,1.9039,1.9041,0,0,0,0,0,0,0,0,1.8868,1.8877,1.8944,1.8944,1.8943,1.898,1.8981,1.9046,1.8969,1.8959,1.8962,1.8959,1.9007,1.9013,1.9029,1.9114,1.9116,1.904,1.9043,1.9045,1.9046,0,0,0,0,0,0,0,1.8864,1.8875,1.8979,1.8945,1.8945,1.8933,1.8938,1.8993,1.8998,1.8959,1.8956,1.8963,1.9006,1.9024,1.903,1.9117,1.904,1.9044,1.9047,1.9049,1.9271,1.9274,0,0,0,0,0,0,1.8862,1.8871,1.8977,1.898,1.8898,1.8937,1.8943,1.8971,1.8997,1.8999,1.8966,1.8961,1.9018,1.9024,1.9032,1.9131,1.9045,1.9049,1.9052,1.9268,1.9272,1.9275,0,0,0,0,0,0,1.8859,1.8872,1.8975,1.8925,1.8937,1.8943,1.8974,1.8974,1.8992,1.9002,1.9003,1.8983,1.9016,1.9025,1.9091,1.9133,1.9051,1.9056,1.9265,1.9269,1.9273,1.9334,0,0,0,0,0,0,1.8855,1.8871,1.8905,1.8926,1.894,1.9034,1.8977,1.8977,1.9,1.8994,1.9019,1.902,1.9014,1.9084,1.9096,1.9138,1.906,1.9261,1.9267,1.9272,1.9328,1.934,1.935,0,0,0,0,0,1.885,1.8921,1.8907,1.892,1.8983,1.9037,1.9045,1.9036,1.9004,1.9037,1.9043,1.9019,1.9127,1.9091,1.9104,1.9148,1.9258,1.9265,1.9271,1.9323,1.9338,1.935,0,0,0,0,0,0,1.8905,1.8923,1.8908,1.8988,1.9011,1.9029,1.9071,1.9052,1.9085,1.9079,1.9067,1.9073,1.9141,1.9152,1.9112,1.9232,1.9187,1.9197,1.9222,1.9236,1.9246,1.9241,1.9064,0,0,0,0,0,1.8926,1.8969,1.8983,1.9052,1.9064,1.9065,1.9089,1.908,1.9104,1.9113,1.9124,1.9148,1.9186,1.9212,1.9248,1.933,1.9333,1.9367,1.9378,1.9387,1.9394,1.9435,1.9449,1.9297,1.9297,1.9297,0,0,1.897,1.8986,1.9014,1.9063,1.908,1.9123,1.9074,1.9123,1.9154,1.9121,1.9182,1.9192,1.9216,1.929,1.9323,1.93,1.9437,1.9395,1.9402,1.9405,1.9443,1.9457,1.947,1.9302,1.9301,1.93,0,0,1.9073,1.909,1.9148,1.9165,1.9191,1.9191,1.9205,1.9225,1.9229,1.9291,1.9266,1.9303,1.9371,1.9388,1.9406,1.9513,1.949,1.9525,1.9581,1.9621,1.9632,1.9643,1.9677,1.969,1.9533,1.9533,1.9533,0,1.9125,1.9189,1.918,1.9229,1.925,1.9221,1.9278,1.9295,1.9332,1.9346,1.9321,1.9403,1.9418,1.9493,1.9519,1.9536,1.9549,1.9521,1.9632,1.9642,1.9652,1.9684,1.9698,1.9537,1.9537,1.9536,1.9536,0,1.925,1.9295,1.9338,1.9373,1.9399,1.9452,1.9449,1.9476,1.9465,1.9467,1.9529,1.9546,1.9583,1.9601,1.9592,1.9674,1.9659,1.9634,1.9588,1.967,1.97,1.9713,1.9542,1.9541,1.954,1.9539,0,0,1.9389,1.9415,1.9431,1.9445,1.947,1.9504,1.9555,1.9591,1.9613,1.9639,1.9679,1.9736,1.9711,1.9732,1.9724,1.9759,1.9837,1.9728,1.9728,1.9745,1.9925,1.9942,1.9957,1.9823,1.9826,1.9828,1.9922,0,1.9489,1.9577,1.9569,1.9652,1.9691,1.9663,1.9707,1.9726,1.9729,1.9762,1.9766,1.9805,1.9771,1.9782,1.9816,1.982,1.9873,1.9814,1.9859,1.986,1.985,1.9973,1.9993,2.008,1.9934,1.9936,1.9938,0,1.9619,1.9647,1.9734,1.975,1.9766,1.9806,1.9836,1.9869,1.989,1.9889,1.9911,1.9896,1.9944,1.9899,1.9965,1.9925,1.9943,1.9948,1.9951,1.9953,1.9902,1.9976,2.0109,2.012,1.9957,1.9955,1.9954,0,1.9707,1.9768,1.9826,1.9839,1.986,1.9888,1.9898,1.9915,1.9937,1.9963,1.9976,2.0009,2.0027,2.0052,2.0045,2.0013,2.0111,2.0066,2.011,2.011,2.013,2.0128,2.0264,2.0147,2.0146,2.0146,2.0146,0,1.9819,1.9872,1.9865,1.9901,1.9959,1.9948,2.0005,2.0012,2.0027,2.0062,2.0041,2.0074,2.0065,2.0098,2.0093,2.0146,2.0155,2.0154,2.0152,2.0155,2.0154,2.0164,2.0157,2.015,2.0149,2.0148,2.0148,0,1.9927,1.9925,1.9986,2.0,2.0004,2.0046,2.0057,2.009,2.0091,2.0135,2.0145,2.0147,2.0183,2.018,2.0222,2.0218,2.0283,2.0275,2.0276,2.0273,2.0315,2.031,2.0461,2.0478,2.0352,2.0353,2.0354,0,1.9997,2.0037,2.0054,2.0076,2.0087,2.0123,2.0144,2.0134,2.0157,2.0181,2.021,2.0245,2.0272,2.0332,2.0336,2.0367,2.0358,2.0408,2.0362,2.0363,2.0355,2.0351,2.0353,2.0417,2.0418,2.0419,2.042,0,2.0121,2.0117,2.0148,2.0177,2.0202,2.0226,2.0247,2.0266,2.0258,2.0284,2.0321,2.0342,2.0383,2.0417,2.0446,2.0455,2.0435,2.0435,2.0446,2.0448,2.0445,2.0444,2.0297,2.0431,2.043,2.0429,2.0429,2.0428,2.0209,2.0242,2.0258,2.0292,2.0307,2.0326,2.0356,2.036,2.0391,2.0423,2.0416,2.0456,2.0473,2.051,2.0522,2.0552,2.0534,2.0551,2.0555,2.0558,2.0562,2.0443,2.0558,2.0558,2.0558,2.0557,2.0557,0,2.0329,2.0337,2.0369,2.0398,2.0424,2.0404,2.0425,2.0448,2.0484,2.0501,2.0528,2.0568,2.06,2.0606,2.0636,2.066,2.0651,2.0668,2.0664,2.0666,2.0578,2.0564,2.0674,2.0674,2.0674,2.0674,2.0674,2.0674,2.0394,2.0447,2.0444,2.0503,2.0511,2.055,2.0564,2.0581,2.0594,2.064,2.0666,2.067,2.0682,2.0712,2.074,2.074,2.0751,2.077,2.0767,2.0685,2.0673,2.0662,2.0648,2.0773,2.0774,2.0852,2.0853,2.0853]},{"header":{"parameterUnit":"m.s-1","parameterCategory":1,"la1":30.2991,"la2":30.254,"lo1":-89.0895,"lo2":-89.0444,"dy":0.0017,"dx":0.0017,"nx":28,"ny":28,"refTime":"2025-09-03T21:00:00:Z","depth":0,"parameterNumber":3,"parameterNumberName":"V-component_of_WINDS"},"data":[0,0,0,0,0,0,0,0,0,0,0,0,0,0,0,0,0,0,0,0,0,0,0,0,0,0,0,0,0,0,0,0,0,0,0,0,0,0,0,0,0,0,0,0,0,0,0,0,0,0,0,0,0,0,0,0,0,0,-0.2341,-0.2342,0,-0.2429,-0.243,-0.2431,-0.248,-0.2481,-0.2481,-0.2481,-0.2569,-0.2571,-0.2574,0,0,0,0,0,0,0,0,0,0,0,0,0,-0.2219,-0.2221,-0.2341,-0.2342,-0.2344,-0.2428,-0.243,-0.2431,-0.248,-0.2481,-0.2481,-0.2481,-0.2569,-0.2571,-0.2574,0,0,0,0,0,0,0,0,0,0,0,0,0,-0.2285,-0.2221,-0.2341,-0.2379,-0.2383,-0.2428,-0.243,-0.2431,-0.248,-0.2481,-0.2481,-0.2481,-0.2568,-0.2571,-0.2574,-0.2589,0,0,-0.2584,-0.2585,0,0,0,0,0,0,0,0,-0.2282,-0.229,-0.2372,-0.2376,-0.2381,-0.2444,-0.2419,-0.2484,-0.248,-0.2443,-0.2481,-0.2481,-0.2527,-0.2534,-0.255,-0.2593,-0.2597,-0.2584,-0.2586,-0.2588,-0.2589,0,0,0,0,0,0,0,-0.2277,-0.2286,-0.2376,-0.2373,-0.2379,-0.2391,-0.2401,-0.2431,-0.2483,-0.2447,-0.245,-0.246,-0.253,-0.2546,-0.2552,-0.2598,-0.2584,-0.2587,-0.2589,-0.259,-0.266,-0.266,0,0,0,0,0,0,-0.2266,-0.2282,-0.2373,-0.2378,-0.2331,-0.2393,-0.2404,-0.2423,-0.2482,-0.2492,-0.246,-0.2462,-0.2541,-0.2548,-0.2555,-0.2578,-0.2588,-0.2591,-0.2593,-0.266,-0.266,-0.266,0,0,0,0,0,0,-0.2263,-0.2274,-0.237,-0.2331,-0.2345,-0.2395,-0.2416,-0.2425,-0.2442,-0.2492,-0.2502,-0.2467,-0.2541,-0.2551,-0.2581,-0.2581,-0.2592,-0.2595,-0.266,-0.266,-0.266,-0.2621,0,0,0,0,0,0,-0.226,-0.2273,-0.2278,-0.2331,-0.2346,-0.2393,-0.2416,-0.2426,-0.2447,-0.2451,-0.2502,-0.2511,-0.2542,-0.2575,-0.2584,-0.2586,-0.2598,-0.266,-0.266,-0.266,-0.2623,-0.262,-0.2617,0,0,0,0,0,-0.2255,-0.2263,-0.2278,-0.2289,-0.2355,-0.2393,-0.2402,-0.2438,-0.2447,-0.2454,-0.2487,-0.2509,-0.258,-0.2578,-0.2588,-0.2591,-0.266,-0.266,-0.266,-0.2624,-0.262,-0.2617,0,0,0,0,0,0,-0.2208,-0.2271,-0.2288,-0.2314,-0.2348,-0.2401,-0.241,-0.2433,-0.2465,-0.2467,-0.251,-0.2521,-0.2547,-0.2572,-0.2569,-0.2609,-0.2623,-0.2624,-0.2592,-0.2589,-0.2587,-0.258,-0.26,0,0,0,0,0,-0.2201,-0.2227,-0.228,-0.2298,-0.2314,-0.2359,-0.2377,-0.2402,-0.2439,-0.2454,-0.2489,-0.2524,-0.2554,-0.2573,-0.2604,-0.2627,-0.2639,-0.2634,-0.2631,-0.2629,-0.263,-0.2646,-0.2644,-0.2659,-0.2659,-0.2659,0,0,-0.2186,-0.2224,-0.2237,-0.2289,-0.2319,-0.2345,-0.2371,-0.2397,-0.2417,-0.2458,-0.2488,-0.2515,-0.2557,-0.2584,-0.2598,-0.2606,-0.2629,-0.2629,-0.2626,-0.2629,-0.2645,-0.2644,-0.2642,-0.2658,-0.2659,-0.2659,0,0,-0.2173,-0.2203,-0.2222,-0.2251,-0.2296,-0.2326,-0.233,-0.2381,-0.2401,-0.2433,-0.2464,-0.2489,-0.254,-0.2569,-0.259,-0.259,-0.2612,-0.2599,-0.2585,-0.2599,-0.2598,-0.2598,-0.2598,-0.2598,-0.2599,-0.2599,-0.2599,0,-0.2148,-0.2189,-0.2229,-0.2254,-0.2276,-0.2315,-0.2335,-0.2361,-0.2413,-0.2428,-0.2436,-0.2503,-0.2533,-0.2569,-0.2569,-0.2584,-0.2592,-0.2593,-0.2595,-0.2595,-0.2595,-0.2596,-0.2596,-0.2598,-0.2598,-0.2598,-0.2598,0,-0.2158,-0.2186,-0.2195,-0.2246,-0.227,-0.2291,-0.2335,-0.2354,-0.2378,-0.2408,-0.244,-0.2479,-0.2519,-0.2529,-0.2552,-0.2568,-0.2572,-0.2587,-0.2601,-0.2591,-0.2593,-0.2594,-0.2595,-0.2596,-0.2596,-0.2597,0,0,-0.2116,-0.2189,-0.2192,-0.2216,-0.2269,-0.2291,-0.2316,-0.2356,-0.2372,-0.2407,-0.2429,-0.2473,-0.2488,-0.2512,-0.2539,-0.2552,-0.2551,-0.2566,-0.2568,-0.2562,-0.2572,-0.2561,-0.256,-0.2566,-0.2566,-0.2566,-0.2569,0,-0.211,-0.2157,-0.2194,-0.2226,-0.2253,-0.2291,-0.2313,-0.2348,-0.2377,-0.2404,-0.2436,-0.2467,-0.2484,-0.2499,-0.2514,-0.2548,-0.2553,-0.2548,-0.2587,-0.2588,-0.2576,-0.2561,-0.2549,-0.2549,-0.257,-0.257,-0.257,0,-0.211,-0.2145,-0.218,-0.2232,-0.2244,-0.2263,-0.2304,-0.2329,-0.237,-0.239,-0.2418,-0.2447,-0.2475,-0.2487,-0.2527,-0.2523,-0.2541,-0.2561,-0.2562,-0.2567,-0.2579,-0.2567,-0.255,-0.2551,-0.2572,-0.2572,-0.2572,0,-0.2077,-0.2132,-0.2161,-0.218,-0.2241,-0.2254,-0.228,-0.2321,-0.2343,-0.2379,-0.2394,-0.2432,-0.2452,-0.2482,-0.252,-0.2524,-0.2557,-0.2571,-0.2575,-0.2574,-0.2579,-0.2579,-0.2566,-0.259,-0.259,-0.259,-0.259,0,-0.2067,-0.2087,-0.2147,-0.2165,-0.2189,-0.2232,-0.2255,-0.2285,-0.2321,-0.2346,-0.2381,-0.2404,-0.2452,-0.2481,-0.2511,-0.254,-0.2549,-0.2567,-0.2575,-0.2564,-0.2562,-0.2577,-0.2578,-0.2591,-0.2591,-0.2591,-0.2591,0,-0.2034,-0.2075,-0.2109,-0.2165,-0.2179,-0.2195,-0.2243,-0.2262,-0.2293,-0.2324,-0.2333,-0.2383,-0.2418,-0.2459,-0.2508,-0.2528,-0.2556,-0.2567,-0.2542,-0.2546,-0.2548,-0.2547,-0.2545,-0.2547,-0.2569,-0.2569,-0.2569,0,-0.2025,-0.2042,-0.21,-0.2119,-0.2144,-0.2175,-0.2198,-0.2241,-0.2264,-0.2314,-0.2327,-0.2365,-0.2398,-0.2453,-0.2493,-0.2531,-0.2544,-0.2541,-0.255,-0.2539,-0.2545,-0.2544,-0.2546,-0.2538,-0.2537,-0.2537,-0.2537,0,-0.2005,-0.2025,-0.2058,-0.2098,-0.2125,-0.2158,-0.2193,-0.2207,-0.2257,-0.2281,-0.2319,-0.2344,-0.2395,-0.2433,-0.2476,-0.2503,-0.2529,-0.2534,-0.2537,-0.2526,-0.2511,-0.252,-0.2535,-0.2533,-0.2534,-0.2534,-0.2534,-0.2534,-0.1985,-0.2002,-0.2046,-0.2082,-0.2113,-0.2145,-0.2166,-0.2201,-0.2233,-0.2278,-0.2301,-0.2338,-0.2381,-0.2442,-0.2468,-0.2498,-0.2507,-0.2511,-0.2512,-0.2512,-0.251,-0.2506,-0.2506,-0.2506,-0.2507,-0.2507,-0.2507,0,-0.1968,-0.1998,-0.2031,-0.2079,-0.2107,-0.2129,-0.217,-0.2192,-0.2224,-0.2262,-0.2294,-0.2337,-0.2375,-0.2419,-0.2459,-0.2475,-0.2488,-0.2484,-0.2484,-0.249,-0.2499,-0.2493,-0.2473,-0.2473,-0.2473,-0.2473,-0.2473,-0.2473,-0.1962,-0.1993,-0.2019,-0.2066,-0.2097,-0.2134,-0.2155,-0.2185,-0.2216,-0.2263,-0.2295,-0.2323,-0.2364,-0.2408,-0.2444,-0.2456,-0.2469,-0.2462,-0.2478,-0.2486,-0.2489,-0.2492,-0.2486,-0.2465,-0.2465,-0.2466,-0.2466,-0.2466]}]]